Time,TemperatureF,DewpointF,PressureIn,WindDirection,WindDirectionDegrees,WindSpeedMPH,WindSpeedGustMPH,Humidity,HourlyPrecipIn,Conditions,Clouds,dailyrainin,SoftwareType,DateUTC
2013-09-03 00:00:00,54.2,48.2,29.93,SSE,167,0.0,0.0,80,0.00,,,0.07,Wunderground v.1.15,2013-09-03 06:00:00,
2013-09-03 00:05:00,54.2,48.2,29.93,SSE,167,0.0,0.0,80,0.00,,,0.07,Wunderground v.1.15,2013-09-03 06:05:00,
2013-09-03 00:15:00,53.9,47.9,29.94,SSE,167,0.0,0.0,80,0.00,,,0.07,Wunderground v.1.15,2013-09-03 06:15:00,
2013-09-03 00:25:00,53.6,47.6,29.94,SSE,167,0.0,0.0,80,0.00,,,0.07,Wunderground v.1.15,2013-09-03 06:25:00,
2013-09-03 00:35:00,53.3,47.3,29.95,SSE,167,0.0,0.0,80,0.00,,,0.07,Wunderground v.1.15,2013-09-03 06:35:00,
2013-09-03 00:45:00,53.1,47.4,29.95,SSE,167,0.0,0.0,81,0.00,,,0.07,Wunderground v.1.15,2013-09-03 06:45:00,
2013-09-03 00:50:00,52.9,47.2,29.95,SSE,167,0.0,0.0,81,0.00,,,0.07,Wunderground v.1.15,2013-09-03 06:50:00,
2013-09-03 00:55:00,52.8,47.1,29.95,SSE,167,0.0,0.0,81,0.00,,,0.07,Wunderground v.1.15,2013-09-03 06:55:00,
2013-09-03 01:05:00,52.5,46.8,29.96,SSE,167,0.0,0.0,81,0.00,,,0.00,Wunderground v.1.15,2013-09-03 07:05:00,
2013-09-03 01:15:00,52.3,47.0,29.96,SSE,167,0.0,0.0,82,0.00,,,0.00,Wunderground v.1.15,2013-09-03 07:15:00,
2013-09-03 01:25:00,52.1,46.8,29.96,SSE,167,0.0,0.0,82,0.00,,,0.00,Wunderground v.1.15,2013-09-03 07:25:00,
2013-09-03 01:30:00,52.1,46.4,29.97,SSE,167,0.0,0.0,81,0.00,,,0.00,Wunderground v.1.15,2013-09-03 07:30:00,
2013-09-03 01:40:00,51.9,46.6,29.96,SSE,167,0.0,0.0,82,0.00,,,0.00,Wunderground v.1.15,2013-09-03 07:40:00,
2013-09-03 01:50:00,51.5,46.5,29.96,SSE,167,0.0,0.0,83,0.00,,,0.00,Wunderground v.1.15,2013-09-03 07:50:00,
2013-09-03 02:00:00,51.2,46.2,29.96,SSE,167,0.0,0.0,83,0.00,,,0.00,Wunderground v.1.15,2013-09-03 08:00:00,
2013-09-03 02:05:00,51.2,46.2,29.96,SSE,167,0.0,0.0,83,0.00,,,0.00,Wunderground v.1.15,2013-09-03 08:05:00,
2013-09-03 02:10:00,51.1,46.4,29.96,SSE,167,0.0,0.0,84,0.00,,,0.00,Wunderground v.1.15,2013-09-03 08:10:00,
2013-09-03 02:15:00,51.0,46.3,29.96,SSE,167,0.0,0.0,84,0.00,,,0.00,Wunderground v.1.15,2013-09-03 08:15:00,
2013-09-03 02:25:00,50.8,46.1,29.96,SSE,167,0.0,0.0,84,0.00,,,0.00,Wunderground v.1.15,2013-09-03 08:25:00,
2013-09-03 02:35:00,50.6,45.9,29.96,SSE,167,0.0,0.0,84,0.00,,,0.00,Wunderground v.1.15,2013-09-03 08:35:00,
2013-09-03 02:40:00,50.5,46.2,29.96,SSE,167,0.0,0.0,85,0.00,,,0.00,Wunderground v.1.15,2013-09-03 08:40:00,
2013-09-03 02:50:00,50.4,46.1,29.97,SSE,167,0.0,0.0,85,0.00,,,0.00,Wunderground v.1.15,2013-09-03 08:50:00,
2013-09-03 02:55:00,50.3,45.6,29.97,SSE,167,0.0,0.0,84,0.00,,,0.00,Wunderground v.1.15,2013-09-03 08:55:00,
2013-09-03 03:05:00,50.3,46.0,29.97,SSE,167,0.0,0.0,85,0.00,,,0.00,Wunderground v.1.15,2013-09-03 09:05:00,
2013-09-03 03:10:00,50.2,45.9,29.97,SSE,167,0.0,0.0,85,0.00,,,0.00,Wunderground v.1.15,2013-09-03 09:10:00,
2013-09-03 03:15:00,50.2,45.9,29.97,SSE,167,0.0,0.0,85,0.00,,,0.00,Wunderground v.1.15,2013-09-03 09:15:00,
2013-09-03 03:25:00,50.1,45.8,29.97,SSE,167,0.0,0.0,85,0.00,,,0.00,Wunderground v.1.15,2013-09-03 09:25:00,
2013-09-03 03:35:00,50.0,45.7,29.97,SSE,167,0.0,0.0,85,0.00,,,0.00,Wunderground v.1.15,2013-09-03 09:35:00,
2013-09-03 03:40:00,49.9,45.6,29.97,SSE,167,0.0,0.0,85,0.00,,,0.00,Wunderground v.1.15,2013-09-03 09:40:00,
2013-09-03 03:45:00,49.7,45.4,29.97,SSE,167,0.0,0.0,85,0.00,,,0.00,Wunderground v.1.15,2013-09-03 09:45:00,
2013-09-03 03:55:00,49.5,45.5,29.97,SSE,167,0.0,0.0,86,0.00,,,0.00,Wunderground v.1.15,2013-09-03 09:55:00,
2013-09-03 04:00:00,49.5,45.8,29.97,SSE,167,0.0,0.0,87,0.00,,,0.00,Wunderground v.1.15,2013-09-03 10:00:00,
2013-09-03 04:05:00,49.4,45.4,29.98,SSE,167,0.0,0.0,86,0.00,,,0.00,Wunderground v.1.15,2013-09-03 10:05:00,
2013-09-03 04:15:00,49.2,45.2,29.98,SSE,167,0.0,0.0,86,0.00,,,0.00,Wunderground v.1.15,2013-09-03 10:15:00,
2013-09-03 04:25:00,49.2,45.2,29.98,SSE,167,0.0,0.0,86,0.00,,,0.00,Wunderground v.1.15,2013-09-03 10:25:00,
2013-09-03 04:35:00,49.1,45.4,29.98,SSE,167,0.0,0.0,87,0.00,,,0.00,Wunderground v.1.15,2013-09-03 10:35:00,
2013-09-03 04:40:00,49.1,45.4,29.98,SSE,167,0.0,0.0,87,0.00,,,0.00,Wunderground v.1.15,2013-09-03 10:40:00,
2013-09-03 04:50:00,48.8,45.1,29.99,SSE,167,0.0,0.0,87,0.00,,,0.00,Wunderground v.1.15,2013-09-03 10:50:00,
2013-09-03 04:55:00,48.7,45.3,29.99,SSE,167,0.0,0.0,88,0.00,,,0.00,Wunderground v.1.15,2013-09-03 10:55:00,
2013-09-03 05:00:00,48.7,45.0,29.99,SSE,167,0.0,0.0,87,0.00,,,0.00,Wunderground v.1.15,2013-09-03 11:00:00,
2013-09-03 05:10:00,48.6,44.9,29.99,SSE,167,0.0,0.0,87,0.00,,,0.00,Wunderground v.1.15,2013-09-03 11:10:00,
2013-09-03 05:15:00,48.5,44.8,29.99,SSE,167,0.0,0.0,87,0.00,,,0.00,Wunderground v.1.15,2013-09-03 11:15:00,
2013-09-03 05:20:00,48.4,44.7,29.99,SSE,167,0.0,0.0,87,0.00,,,0.00,Wunderground v.1.15,2013-09-03 11:20:00,
2013-09-03 05:30:00,48.4,45.0,29.99,SSE,167,0.0,0.0,88,0.00,,,0.00,Wunderground v.1.15,2013-09-03 11:30:00,
2013-09-03 05:35:00,48.5,45.4,29.99,SSE,167,0.0,0.0,89,0.00,,,0.00,Wunderground v.1.15,2013-09-03 11:35:00,
2013-09-03 05:45:00,48.6,45.5,29.99,SSE,167,0.0,0.0,89,0.00,,,0.00,Wunderground v.1.15,2013-09-03 11:45:00,
2013-09-03 05:55:00,48.9,45.8,29.99,SSE,167,0.0,0.0,89,0.00,,,0.00,Wunderground v.1.15,2013-09-03 11:55:00,
2013-09-03 06:05:00,49.0,45.9,29.99,SSE,167,0.0,0.0,89,0.00,,,0.00,Wunderground v.1.15,2013-09-03 12:05:00,
2013-09-03 06:10:00,49.1,46.0,29.99,SSE,167,0.0,0.0,89,0.00,,,0.00,Wunderground v.1.15,2013-09-03 12:10:00,
2013-09-03 06:15:00,49.2,46.1,29.99,SSE,167,0.0,0.0,89,0.00,,,0.00,Wunderground v.1.15,2013-09-03 12:15:00,
2013-09-03 06:25:00,49.4,46.0,29.99,SSE,167,0.0,0.0,88,0.00,,,0.00,Wunderground v.1.15,2013-09-03 12:25:00,
2013-09-03 06:30:00,49.6,46.2,29.99,SSE,167,0.0,0.0,88,0.00,,,0.00,Wunderground v.1.15,2013-09-03 12:30:00,
2013-09-03 06:40:00,49.7,46.3,29.99,SSE,167,0.0,0.0,88,0.00,,,0.00,Wunderground v.1.15,2013-09-03 12:40:00,
2013-09-03 06:45:00,49.8,46.7,29.99,SSE,167,0.0,0.0,89,0.00,,,0.00,Wunderground v.1.15,2013-09-03 12:45:00,
2013-09-03 06:55:00,50.0,46.9,29.99,SSE,167,0.0,0.0,89,0.00,,,0.00,Wunderground v.1.15,2013-09-03 12:55:00,
2013-09-03 07:05:00,50.2,46.8,29.99,SSE,167,0.0,0.0,88,0.00,,,0.00,Wunderground v.1.15,2013-09-03 13:05:00,
2013-09-03 07:10:00,50.3,46.9,30.00,SSE,167,0.0,0.0,88,0.00,,,0.00,Wunderground v.1.15,2013-09-03 13:10:00,
2013-09-03 07:15:00,50.4,47.0,30.00,SSE,167,0.0,0.0,88,0.00,,,0.00,Wunderground v.1.15,2013-09-03 13:15:00,
2013-09-03 07:25:00,50.8,47.4,30.00,SSE,167,0.0,0.0,88,0.00,,,0.00,Wunderground v.1.15,2013-09-03 13:25:00,
2013-09-03 07:30:00,50.9,47.5,30.00,SSE,167,0.0,0.0,88,0.00,,,0.00,Wunderground v.1.15,2013-09-03 13:30:00,
2013-09-03 07:35:00,51.2,48.1,30.00,SSE,167,0.0,0.0,89,0.00,,,0.00,Wunderground v.1.15,2013-09-03 13:35:00,
2013-09-03 07:45:00,51.8,49.5,30.00,SSE,167,0.0,0.0,92,0.00,,,0.00,Wunderground v.1.15,2013-09-03 13:45:00,
2013-09-03 07:50:00,52.2,48.8,30.00,SSE,167,0.0,0.0,88,0.00,,,0.00,Wunderground v.1.15,2013-09-03 13:50:00,
2013-09-03 07:55:00,52.5,48.7,30.00,SSE,167,0.0,0.0,87,0.00,,,0.00,Wunderground v.1.15,2013-09-03 13:55:00,
2013-09-03 08:00:00,53.0,49.2,30.00,SSE,167,0.0,0.0,87,0.00,,,0.00,Wunderground v.1.15,2013-09-03 14:00:00,
2013-09-03 08:10:00,53.8,49.4,30.00,SSE,167,0.0,0.0,85,0.00,,,0.00,Wunderground v.1.15,2013-09-03 14:10:00,
2013-09-03 08:15:00,54.4,49.3,29.99,SSE,167,0.0,0.0,83,0.00,,,0.00,Wunderground v.1.15,2013-09-03 14:15:00,
2013-09-03 08:25:00,56.8,48.6,29.99,SSE,167,0.0,0.0,74,0.00,,,0.00,Wunderground v.1.15,2013-09-03 14:25:00,
2013-09-03 08:35:00,59.0,48.8,29.99,SSE,167,0.0,0.0,69,0.00,,,0.00,Wunderground v.1.15,2013-09-03 14:35:00,
2013-09-03 08:45:00,60.1,50.3,29.99,SSE,167,0.0,0.0,70,0.00,,,0.00,Wunderground v.1.15,2013-09-03 14:45:00,
2013-09-03 08:55:00,60.9,50.7,29.99,SSE,167,0.0,0.0,69,0.00,,,0.00,Wunderground v.1.15,2013-09-03 14:55:00,
2013-09-03 09:05:00,62.3,50.8,29.99,SSE,167,0.0,0.0,66,0.00,,,0.00,Wunderground v.1.15,2013-09-03 15:05:00,
2013-09-03 09:15:00,64.8,50.6,29.99,SSE,167,0.0,0.0,60,0.00,,,0.00,Wunderground v.1.15,2013-09-03 15:15:00,
2013-09-03 09:25:00,66.3,52.9,29.99,SSE,167,0.0,0.0,62,0.00,,,0.00,Wunderground v.1.15,2013-09-03 15:25:00,
2013-09-03 09:35:00,66.3,52.9,29.99,SSE,167,0.0,0.0,62,0.00,,,0.00,Wunderground v.1.15,2013-09-03 15:35:00,
2013-09-03 09:40:00,66.1,51.8,29.99,SSE,167,0.0,0.0,60,0.00,,,0.00,Wunderground v.1.15,2013-09-03 15:40:00,
2013-09-03 09:50:00,65.7,51.9,29.99,SSE,167,0.0,0.0,61,0.00,,,0.00,Wunderground v.1.15,2013-09-03 15:50:00,
2013-09-03 10:00:00,65.5,51.2,29.99,SSE,167,0.0,0.0,60,0.00,,,0.00,Wunderground v.1.15,2013-09-03 16:00:00,
2013-09-03 10:05:00,65.6,50.9,30.00,SSE,167,0.0,0.0,59,0.00,,,0.00,Wunderground v.1.15,2013-09-03 16:05:00,
2013-09-03 10:15:00,66.5,51.7,30.00,SSE,167,0.0,0.0,59,0.00,,,0.00,Wunderground v.1.15,2013-09-03 16:15:00,
2013-09-03 10:25:00,67.8,49.5,30.00,SSE,167,0.0,0.0,52,0.00,,,0.00,Wunderground v.1.15,2013-09-03 16:25:00,
2013-09-03 10:35:00,70.3,50.8,29.99,SSE,167,0.0,0.0,50,0.00,,,0.00,Wunderground v.1.15,2013-09-03 16:35:00,
2013-09-03 10:45:00,72.1,51.9,29.99,SSE,167,0.0,0.0,49,0.00,,,0.00,Wunderground v.1.15,2013-09-03 16:45:00,
2013-09-03 10:50:00,72.1,51.9,29.98,SSE,167,0.0,0.0,49,0.00,,,0.00,Wunderground v.1.15,2013-09-03 16:50:00,
2013-09-03 11:00:00,72.8,51.4,29.98,South,175,0.0,0.0,47,0.00,,,0.00,Wunderground v.1.15,2013-09-03 17:00:00,
2013-09-03 11:10:00,74.8,50.8,29.98,SSE,158,0.0,0.0,43,0.00,,,0.00,Wunderground v.1.15,2013-09-03 17:10:00,
2013-09-03 11:15:00,75.1,52.3,29.97,SSE,158,0.0,0.0,45,0.00,,,0.00,Wunderground v.1.15,2013-09-03 17:15:00,
2013-09-03 11:25:00,77.3,52.4,29.97,ESE,116,0.0,0.0,42,0.00,,,0.00,Wunderground v.1.15,2013-09-03 17:25:00,
2013-09-03 11:35:00,78.4,54.0,29.96,ESE,106,0.0,0.0,43,0.00,,,0.00,Wunderground v.1.15,2013-09-03 17:35:00,
2013-09-03 11:40:00,78.6,54.2,29.96,ESE,105,0.0,0.0,43,0.00,,,0.00,Wunderground v.1.15,2013-09-03 17:40:00,
2013-09-03 11:50:00,78.9,53.2,29.95,East,90,0.0,0.0,41,0.00,,,0.00,Wunderground v.1.15,2013-09-03 17:50:00,
2013-09-03 12:00:00,79.2,54.1,29.95,SE,138,0.0,0.0,42,0.00,,,0.00,Wunderground v.1.15,2013-09-03 18:00:00,
2013-09-03 12:10:00,79.3,55.5,29.95,East,80,0.0,0.0,44,0.00,,,0.00,Wunderground v.1.15,2013-09-03 18:10:00,
2013-09-03 12:15:00,79.1,53.4,29.95,SSW,194,0.0,0.0,41,0.00,,,0.00,Wunderground v.1.15,2013-09-03 18:15:00,
2013-09-03 12:25:00,79.2,54.8,29.94,SSE,150,0.0,0.0,43,0.00,,,0.00,Wunderground v.1.15,2013-09-03 18:25:00,
2013-09-03 12:30:00,79.1,53.4,29.94,South,190,0.0,0.0,41,0.00,,,0.00,Wunderground v.1.15,2013-09-03 18:30:00,
2013-09-03 12:40:00,80.0,54.8,29.94,East,100,0.0,0.0,42,0.00,,,0.00,Wunderground v.1.15,2013-09-03 18:40:00,
2013-09-03 12:50:00,80.5,54.0,29.93,East,101,0.0,0.0,40,0.00,,,0.00,Wunderground v.1.15,2013-09-03 18:50:00,
2013-09-03 12:55:00,80.7,53.4,29.93,ENE,75,0.0,0.0,39,0.00,,,0.00,Wunderground v.1.15,2013-09-03 18:55:00,
2013-09-03 13:05:00,81.0,52.3,29.92,ESE,121,0.0,0.0,37,0.00,,,0.00,Wunderground v.1.15,2013-09-03 19:05:00,
2013-09-03 13:10:00,81.1,51.6,29.92,SSE,165,0.0,0.0,36,0.00,,,0.00,Wunderground v.1.15,2013-09-03 19:10:00,
2013-09-03 13:15:00,80.7,52.0,29.92,East,90,0.0,0.0,37,0.00,,,0.00,Wunderground v.1.15,2013-09-03 19:15:00,
2013-09-03 13:25:00,78.8,51.0,29.92,East,91,0.0,0.0,38,0.00,,,0.00,Wunderground v.1.15,2013-09-03 19:25:00,
2013-09-03 13:35:00,80.0,52.8,29.92,East,91,0.0,0.0,39,0.00,,,0.00,Wunderground v.1.15,2013-09-03 19:35:00,
2013-09-03 13:45:00,78.2,51.2,29.92,ESE,123,0.0,0.0,39,0.00,,,0.00,Wunderground v.1.15,2013-09-03 19:45:00,
2013-09-03 13:55:00,75.6,49.6,29.93,ENE,71,0.0,0.0,40,0.00,,,0.00,Wunderground v.1.15,2013-09-03 19:55:00,
2013-09-03 14:05:00,73.3,50.1,29.92,NW,309,0.0,0.0,44,0.00,,,0.00,Wunderground v.1.15,2013-09-03 20:05:00,
2013-09-03 14:15:00,72.8,50.2,29.92,NNW,330,0.0,0.0,45,0.00,,,0.00,Wunderground v.1.15,2013-09-03 20:15:00,
2013-09-03 14:25:00,72.6,49.4,29.93,WSW,252,0.0,0.0,44,0.00,,,0.00,Wunderground v.1.15,2013-09-03 20:25:00,
2013-09-03 14:35:00,71.6,47.9,29.93,SSE,150,0.0,0.0,43,0.00,,,0.00,Wunderground v.1.15,2013-09-03 20:35:00,
2013-09-03 14:45:00,70.7,50.0,29.93,East,98,0.0,0.0,48,0.00,,,0.00,Wunderground v.1.15,2013-09-03 20:45:00,
2013-09-03 14:50:00,70.3,54.8,29.94,East,101,0.0,0.0,58,0.00,,,0.00,Wunderground v.1.15,2013-09-03 20:50:00,
2013-09-03 15:00:00,66.3,54.6,29.94,East,101,0.0,0.0,66,0.08,,,0.02,Wunderground v.1.15,2013-09-03 21:00:00,
2013-09-03 15:10:00,63.5,53.9,29.94,East,101,0.0,0.0,71,0.00,,,0.02,Wunderground v.1.15,2013-09-03 21:10:00,
2013-09-03 15:15:00,63.1,52.8,29.94,East,85,0.0,0.0,69,0.00,,,0.02,Wunderground v.1.15,2013-09-03 21:15:00,
2013-09-03 15:25:00,64.0,54.0,29.93,East,84,0.0,0.0,70,0.00,,,0.02,Wunderground v.1.15,2013-09-03 21:25:00,
2013-09-03 15:35:00,65.4,51.6,29.93,East,84,0.0,0.0,61,0.00,,,0.02,Wunderground v.1.15,2013-09-03 21:35:00,
2013-09-03 15:40:00,66.0,51.3,29.93,East,84,0.0,0.0,59,0.00,,,0.02,Wunderground v.1.15,2013-09-03 21:40:00,
2013-09-03 15:45:00,66.5,52.2,29.93,East,84,0.0,0.0,60,0.00,,,0.02,Wunderground v.1.15,2013-09-03 21:45:00,
2013-09-03 15:50:00,66.8,53.4,29.92,East,84,0.0,0.0,62,0.00,,,0.02,Wunderground v.1.15,2013-09-03 21:50:00,
2013-09-03 16:00:00,66.7,53.7,29.92,SSW,213,0.0,0.0,63,0.00,,,0.02,Wunderground v.1.15,2013-09-03 22:00:00,
2013-09-03 16:10:00,67.4,53.9,29.92,SSW,213,0.0,0.0,62,0.00,,,0.02,Wunderground v.1.15,2013-09-03 22:10:00,
2013-09-03 16:15:00,68.0,53.6,29.92,SSW,213,0.0,0.0,60,0.00,,,0.02,Wunderground v.1.15,2013-09-03 22:15:00,
2013-09-03 16:25:00,69.5,52.6,29.93,SSW,213,0.0,0.0,55,0.00,,,0.02,Wunderground v.1.15,2013-09-03 22:25:00,
2013-09-03 16:35:00,71.6,50.9,29.92,ESE,121,0.0,0.0,48,0.00,,,0.02,Wunderground v.1.15,2013-09-03 22:35:00,
2013-09-03 16:40:00,72.2,51.4,29.92,ESE,121,0.0,0.0,48,0.00,,,0.02,Wunderground v.1.15,2013-09-03 22:40:00,
2013-09-03 16:45:00,72.6,51.2,29.92,ESE,121,0.0,0.0,47,0.00,,,0.02,Wunderground v.1.15,2013-09-03 22:45:00,
2013-09-03 16:50:00,72.9,50.3,29.92,ESE,121,0.0,0.0,45,0.00,,,0.02,Wunderground v.1.15,2013-09-03 22:50:00,
2013-09-03 16:55:00,73.1,51.1,29.92,ESE,121,0.0,0.0,46,0.00,,,0.02,Wunderground v.1.15,2013-09-03 22:55:00,
2013-09-03 17:00:00,73.1,52.8,29.92,ESE,121,0.0,0.0,49,0.00,,,0.02,Wunderground v.1.15,2013-09-03 23:00:00,
2013-09-03 17:05:00,73.0,53.3,29.91,ESE,121,0.0,0.0,50,0.00,,,0.02,Wunderground v.1.15,2013-09-03 23:05:00,
2013-09-03 17:15:00,73.5,53.2,29.92,ESE,121,0.0,0.0,49,0.00,,,0.02,Wunderground v.1.15,2013-09-03 23:15:00,
2013-09-03 17:25:00,73.5,52.6,29.92,ESE,121,0.0,0.0,48,0.00,,,0.02,Wunderground v.1.15,2013-09-03 23:25:00,
2013-09-03 17:30:00,73.4,53.6,29.92,ESE,121,0.0,0.0,50,0.00,,,0.02,Wunderground v.1.15,2013-09-03 23:30:00,
2013-09-03 17:40:00,73.0,53.3,29.92,ESE,121,0.0,0.0,50,0.00,,,0.02,Wunderground v.1.15,2013-09-03 23:40:00,
2013-09-03 17:50:00,72.1,56.5,29.92,ESE,121,0.0,0.0,58,0.00,,,0.02,Wunderground v.1.15,2013-09-03 23:50:00,
2013-09-03 17:55:00,71.5,57.8,29.91,ESE,121,0.0,0.0,62,0.00,,,0.02,Wunderground v.1.15,2013-09-03 23:55:00,
2013-09-03 18:00:00,71.1,57.4,29.91,ESE,121,0.0,0.0,62,0.00,,,0.02,Wunderground v.1.15,2013-09-04 00:00:00,
2013-09-03 18:10:00,70.5,57.7,29.90,ESE,121,0.0,0.0,64,0.00,,,0.02,Wunderground v.1.15,2013-09-04 00:10:00,
2013-09-03 18:15:00,70.0,55.9,29.90,ESE,121,0.0,0.0,61,0.00,,,0.02,Wunderground v.1.15,2013-09-04 00:15:00,
2013-09-03 18:25:00,69.4,54.0,29.90,ESE,121,0.0,0.0,58,0.00,,,0.02,Wunderground v.1.15,2013-09-04 00:25:00,
2013-09-03 18:35:00,69.5,54.1,29.91,ESE,121,0.0,0.0,58,0.00,,,0.02,Wunderground v.1.15,2013-09-04 00:35:00,
2013-09-03 18:40:00,69.6,54.2,29.91,ESE,121,0.0,0.0,58,0.00,,,0.02,Wunderground v.1.15,2013-09-04 00:40:00,
2013-09-03 18:50:00,69.7,54.3,29.91,ESE,121,0.0,0.0,58,0.00,,,0.02,Wunderground v.1.15,2013-09-04 00:50:00,
2013-09-03 19:00:00,69.3,54.8,29.90,ESE,121,0.0,0.0,60,0.00,,,0.02,Wunderground v.1.15,2013-09-04 01:00:00,
2013-09-03 19:05:00,69.1,54.6,29.91,ESE,121,0.0,0.0,60,0.00,,,0.02,Wunderground v.1.15,2013-09-04 01:05:00,
2013-09-03 19:10:00,69.0,55.0,29.91,ESE,121,0.0,0.0,61,0.00,,,0.02,Wunderground v.1.15,2013-09-04 01:10:00,
2013-09-03 19:15:00,68.8,54.3,29.92,ESE,121,0.0,0.0,60,0.00,,,0.02,Wunderground v.1.15,2013-09-04 01:15:00,
2013-09-03 19:25:00,68.5,54.5,29.92,ESE,121,0.0,0.0,61,0.00,,,0.02,Wunderground v.1.15,2013-09-04 01:25:00,
2013-09-03 19:30:00,68.4,56.6,29.92,ESE,121,0.0,0.0,66,0.00,,,0.02,Wunderground v.1.15,2013-09-04 01:30:00,
2013-09-03 19:35:00,68.0,56.2,29.92,ESE,121,0.0,0.0,66,0.00,,,0.02,Wunderground v.1.15,2013-09-04 01:35:00,
2013-09-03 19:40:00,67.8,58.4,29.92,ESE,121,0.0,0.0,72,0.00,,,0.02,Wunderground v.1.15,2013-09-04 01:40:00,
2013-09-03 19:50:00,67.3,55.1,29.92,ESE,121,0.0,0.0,65,0.00,,,0.02,Wunderground v.1.15,2013-09-04 01:50:00,
2013-09-03 19:55:00,67.1,55.4,29.92,ESE,121,0.0,0.0,66,0.00,,,0.02,Wunderground v.1.15,2013-09-04 01:55:00,
2013-09-03 20:00:00,66.8,56.3,29.93,ESE,121,0.0,0.0,69,0.00,,,0.02,Wunderground v.1.15,2013-09-04 02:00:00,
2013-09-03 20:10:00,66.1,56.8,29.93,ESE,121,0.0,0.0,72,0.00,,,0.02,Wunderground v.1.15,2013-09-04 02:10:00,
2013-09-03 20:15:00,65.5,55.8,29.93,ESE,121,0.0,0.0,71,0.00,,,0.02,Wunderground v.1.15,2013-09-04 02:15:00,
2013-09-03 20:25:00,64.9,56.0,29.94,ESE,121,0.0,0.0,73,0.00,,,0.02,Wunderground v.1.15,2013-09-04 02:25:00,
2013-09-03 20:30:00,64.5,54.9,29.94,ESE,121,0.0,0.0,71,0.00,,,0.02,Wunderground v.1.15,2013-09-04 02:30:00,
2013-09-03 20:40:00,64.1,53.7,29.95,ESE,121,0.0,0.0,69,0.00,,,0.02,Wunderground v.1.15,2013-09-04 02:40:00,
2013-09-03 20:50:00,63.9,54.3,29.95,ESE,121,0.0,0.0,71,0.00,,,0.02,Wunderground v.1.15,2013-09-04 02:50:00,
2013-09-03 20:55:00,63.8,53.0,29.95,ESE,121,0.0,0.0,68,0.00,,,0.02,Wunderground v.1.15,2013-09-04 02:55:00,
2013-09-03 21:00:00,63.6,52.4,29.95,ESE,121,0.0,0.0,67,0.00,,,0.02,Wunderground v.1.15,2013-09-04 03:00:00,
2013-09-03 21:10:00,63.1,55.0,29.96,ESE,121,0.0,0.0,75,0.00,,,0.02,Wunderground v.1.15,2013-09-04 03:10:00,
2013-09-03 21:15:00,62.8,54.8,29.96,ESE,121,0.0,0.0,75,0.00,,,0.02,Wunderground v.1.15,2013-09-04 03:15:00,
2013-09-03 21:25:00,62.0,53.6,29.96,ESE,121,0.0,0.0,74,0.00,,,0.02,Wunderground v.1.15,2013-09-04 03:25:00,
2013-09-03 21:30:00,61.7,53.3,29.96,ESE,121,0.0,0.0,74,0.00,,,0.02,Wunderground v.1.15,2013-09-04 03:30:00,
2013-09-03 21:35:00,61.4,52.7,29.97,ESE,121,0.0,0.0,73,0.00,,,0.02,Wunderground v.1.15,2013-09-04 03:35:00,
2013-09-03 21:40:00,61.2,52.8,29.97,ESE,121,0.0,0.0,74,0.00,,,0.02,Wunderground v.1.15,2013-09-04 03:40:00,
2013-09-03 21:50:00,60.9,52.6,29.97,ESE,121,0.0,0.0,74,0.00,,,0.02,Wunderground v.1.15,2013-09-04 03:50:00,
2013-09-03 22:00:00,60.5,52.5,29.97,ESE,121,0.0,0.0,75,0.00,,,0.02,Wunderground v.1.15,2013-09-04 04:00:00,
2013-09-03 22:05:00,60.4,52.4,29.97,ESE,121,0.0,0.0,75,0.00,,,0.02,Wunderground v.1.15,2013-09-04 04:05:00,
2013-09-03 22:10:00,60.2,52.2,29.97,ESE,121,0.0,0.0,75,0.00,,,0.02,Wunderground v.1.15,2013-09-04 04:10:00,
2013-09-03 22:15:00,59.9,51.2,29.97,ESE,121,0.0,0.0,73,0.00,,,0.02,Wunderground v.1.15,2013-09-04 04:15:00,
2013-09-03 22:20:00,59.8,52.6,29.98,ESE,121,0.0,0.0,77,0.00,,,0.02,Wunderground v.1.15,2013-09-04 04:20:00,
2013-09-03 22:30:00,59.5,51.9,29.98,ESE,121,0.0,0.0,76,0.00,,,0.02,Wunderground v.1.15,2013-09-04 04:30:00,
2013-09-03 22:35:00,59.3,52.1,29.98,ESE,121,0.0,0.0,77,0.00,,,0.02,Wunderground v.1.15,2013-09-04 04:35:00,
2013-09-03 22:45:00,59.0,51.4,29.98,ESE,121,0.0,0.0,76,0.00,,,0.02,Wunderground v.1.15,2013-09-04 04:45:00,
2013-09-03 22:50:00,59.0,51.8,29.98,ESE,121,0.0,0.0,77,0.00,,,0.02,Wunderground v.1.15,2013-09-04 04:50:00,
2013-09-03 23:00:00,59.0,52.1,29.98,ESE,121,0.0,0.0,78,0.00,,,0.02,Wunderground v.1.15,2013-09-04 05:00:00,
2013-09-03 23:05:00,58.8,51.6,29.98,ESE,121,0.0,0.0,77,0.00,,,0.02,Wunderground v.1.15,2013-09-04 05:05:00,
2013-09-03 23:10:00,58.6,51.4,29.98,ESE,121,0.0,0.0,77,0.00,,,0.02,Wunderground v.1.15,2013-09-04 05:10:00,
2013-09-03 23:15:00,58.5,51.3,29.98,ESE,121,0.0,0.0,77,0.00,,,0.02,Wunderground v.1.15,2013-09-04 05:15:00,
2013-09-03 23:25:00,58.2,51.7,29.98,ESE,121,0.0,0.0,79,0.00,,,0.02,Wunderground v.1.15,2013-09-04 05:25:00,
2013-09-03 23:30:00,58.1,51.6,29.98,ESE,121,0.0,0.0,79,0.00,,,0.02,Wunderground v.1.15,2013-09-04 05:30:00,
2013-09-03 23:35:00,58.0,51.2,29.98,ESE,121,0.0,0.0,78,0.00,,,0.02,Wunderground v.1.15,2013-09-04 05:35:00,
2013-09-03 23:45:00,57.6,51.1,29.98,ESE,121,0.0,0.0,79,0.00,,,0.02,Wunderground v.1.15,2013-09-04 05:45:00,
2013-09-03 23:50:00,57.5,51.0,29.98,ESE,121,0.0,0.0,79,0.00,,,0.02,Wunderground v.1.15,2013-09-04 05:50:00,
2013-09-03 23:55:00,57.4,51.3,29.98,ESE,121,0.0,0.0,80,0.00,,,0.02,Wunderground v.1.15,2013-09-04 05:55:00,